EST,Max TemperatureF,Mean TemperatureF,Min TemperatureF,Max Dew PointF,MeanDew PointF,Min DewpointF,Max Humidity, Mean Humidity, Min Humidity, Max Sea Level PressureIn, Mean Sea Level PressureIn, Min Sea Level PressureIn, Max VisibilityMiles, Mean VisibilityMiles, Min VisibilityMiles, Max Wind SpeedMPH, Mean Wind SpeedMPH, Max Gust SpeedMPH,PrecipitationIn, CloudCover, Events, WindDirDegrees
2013-11-1,68,56,43,61,55,44,100,79,58,29.72,29.52,29.39,10,8,1,26,10,37,0.24,6,Rain,192
2013-11-2,66,50,34,46,40,36,100,69,37,29.76,29.66,29.60,10,9,4,15,3,20,0.03,4,Rain,304
2013-11-3,44,33,22,41,24,11,89,59,29,30.43,30.08,29.77,10,10,10,18,9,23,0.00,5,,327
2013-11-4,42,29,16,21,15,10,92,60,27,30.73,30.63,30.47,10,10,10,9,1,16,0.00,0,,315
2013-11-5,48,34,19,29,23,16,91,65,39,30.73,30.64,30.50,10,10,8,10,1,14,0.00,0,,165
2013-11-6,62,47,32,43,37,29,89,68,46,30.50,30.28,30.00,10,10,9,15,5,21,0.00,1,,177
2013-11-7,60,49,38,56,45,31,83,73,62,29.97,29.79,29.69,10,10,2,20,7,28,0.06,7,Rain,269
2013-11-8,47,36,25,35,26,21,92,69,45,30.06,29.92,29.82,10,10,2,23,8,30,0.02,5,Rain,295
2013-11-9,43,37,31,27,21,18,75,57,39,30.19,30.12,30.03,10,10,10,20,6,24,0.00,5,,269
2013-11-10,46,39,31,38,34,27,100,82,64,29.99,29.84,29.73,10,7,0,17,2,24,0.06,5,Fog-Rain,292
2013-11-11,50,44,37,29,25,20,70,51,31,30.08,29.97,29.86,10,10,10,22,8,32,0.00,5,,252
2013-11-12,43,35,26,31,18,12,63,53,43,30.17,30.05,29.86,10,10,8,23,11,29,T,4,Rain,313
2013-11-13,34,28,21,13,10,7,62,49,36,30.30,30.22,30.12,10,10,10,18,9,24,0.00,0,,278
2013-11-14,49,36,22,26,21,14,92,65,37,30.11,30.07,30.03,10,10,7,18,5,25,0.00,1,,230
2013-11-15,56,38,19,29,21,17,96,60,24,30.19,30.15,30.10,10,9,7,8,1,9,0.00,0,,152
2013-11-16,58,42,25,27,25,21,85,55,24,30.33,30.28,30.19,10,10,6,6,0,6,0.00,2,,200
2013-11-17,42,33,23,42,34,21,100,93,85,30.33,30.18,29.86,10,3,0,6,1,7,0.10,7,Fog-Rain,307
2013-11-18,63,53,42,58,45,30,100,67,34,29.82,29.59,29.50,10,6,0,21,8,29,0.31,5,Fog-Rain,222
2013-11-19,39,35,30,27,18,13,64,51,37,30.29,29.94,29.64,10,10,10,23,15,33,0.00,4,,305
2013-11-20,41,29,17,15,12,9,77,52,27,30.64,30.52,30.33,10,10,10,22,8,33,0.00,1,,314
2013-11-21,47,30,12,23,14,6,92,56,20,30.66,30.55,30.37,10,10,9,8,1,13,0.00,1,,60
2013-11-22,38,34,29,38,34,22,100,86,72,30.34,30.06,29.79,10,3,0,6,1,6,0.14,8,Fog-Rain,291
2013-11-23,42,34,25,38,26,11,100,67,34,29.93,29.81,29.75,10,7,0,21,10,30,T,5,Fog-Rain-Snow,296
2013-11-24,26,22,18,21,9,-3,75,55,34,29.94,29.84,29.77,10,8,1,25,19,58,0.02,5,Snow,306
2013-11-25,30,24,18,11,1,-11,52,36,19,30.36,30.30,30.24,10,10,10,32,12,58,0.00,2,,258
2013-11-26,35,31,26,31,23,11,92,69,46,30.32,30.24,30.07,10,7,2,8,3,12,0.11,8,Snow,149
2013-11-27,53,43,32,52,43,27,100,88,75,30.04,29.47,29.26,10,4,1,21,8,30,1.93,8,Rain,333
2013-11-28,35,25,15,27,12,2,75,53,31,30.43,30.01,29.43,10,10,10,24,12,33,T,2,,289
2013-11-29,29,19,8,11,5,0,84,57,29,30.76,30.59,30.44,10,10,10,16,5,22,0.00,0,,318
2013-11-30,30,17,3,18,9,0,88,65,42,30.83,30.68,30.44,10,10,10,12,2,16,0.00,3,,157